| time (UTC) | temp C | wind direction | speed KPH | gust KPH | rain 1hr cm | rain 24hr cm | rain mn cm | humidity % | barometer mb |
| 20260505200056 | 27 | 197 | 8.0 | 17.7 | 0.00 | 0.00 | 0.00 | 56 | 1015.6 |
| 20260505194549 | 27 | 198 | 8.0 | 16.1 | 0.00 | 0.00 | 0.00 | 56 | 1015.6 |
| 20260505193059 | 27 | 157 | 8.0 | 19.3 | 0.00 | 0.00 | 0.00 | 56 | 1015.8 |
| 20260505191549 | 26 | 181 | 8.0 | 16.1 | 0.00 | 0.00 | 0.00 | 56 | 1015.7 |
| 20260505190053 | 26 | 151 | 8.0 | 19.3 | 0.00 | 0.00 | 0.00 | 56 | 1016.1 |
| 20260505184551 | 26 | 135 | 8.0 | 14.5 | 0.00 | 0.00 | 0.00 | 59 | 1016.1 |
| 20260505183045 | 26 | 174 | 8.0 | 14.5 | 0.00 | 0.00 | 0.00 | 58 | 1016.1 |
| 20260505181555 | 25 | 136 | 4.8 | 16.1 | 0.00 | 0.00 | 0.00 | 59 | 1016.3 |
| 20260505180054 | 26 | 142 | 8.0 | 14.5 | 0.00 | 0.00 | 0.00 | 56 | 1016.3 |
| 20260505174557 | 26 | 167 | 6.4 | 17.7 | 0.00 | 0.00 | 0.00 | 55 | 1016.5 |
| 20260505173047 | 26 | 149 | 6.4 | 16.1 | 0.00 | 0.00 | 0.00 | 57 | 1016.4 |
| 20260505171548 | 26 | 162 | 8.0 | 17.7 | 0.00 | 0.00 | 0.00 | 55 | 1016.5 |
| 20260505170046 | 26 | 210 | 6.4 | 17.7 | 0.00 | 0.00 | 0.00 | 52 | 1016.6 |
| 20260505164551 | 26 | 149 | 8.0 | 14.5 | 0.00 | 0.00 | 0.00 | 52 | 1016.6 |
| 20260505163054 | 26 | 135 | 6.4 | 14.5 | 0.00 | 0.00 | 0.00 | 54 | 1016.3 |
| 20260505161548 | 26 | 174 | 6.4 | 11.3 | 0.00 | 0.00 | 0.00 | 53 | 1016.3 |
| 20260505153050 | 25 | 190 | 4.8 | 12.9 | 0.00 | 0.00 | 0.00 | 55 | 1016.7 |
| 20260505151545 | 24 | 127 | 6.4 | 12.9 | 0.00 | 0.00 | 0.00 | 57 | 1016.7 |
| 20260505124551 | 17 | 67 | 3.2 | 6.4 | 0.00 | 0.00 | 0.00 | 85 | 1016.4 |
| 20260505123048 | 16 | 60 | 1.6 | 4.8 | 0.00 | 0.00 | 0.00 | 89 | 1016.2 |
| 20260505121546 | 15 | 105 | 1.6 | 3.2 | 0.00 | 0.00 | 0.00 | 90 | 1016.1 |
| 20260505120051 | 14 | 60 | 1.6 | 3.2 | 0.00 | 0.00 | 0.00 | 93 | 1016.0 |
| 20260505114550 | 13 | 0 | 0.0 | 1.6 | 0.00 | 0.00 | 0.00 | 93 | 1015.9 |
| 20260505113047 | 12 | 0 | 0.0 | 1.6 | 0.00 | 0.00 | 0.00 | 95 | 1015.8 |
| 20260505111550 | 12 | 44 | 0.0 | 1.6 | 0.00 | 0.00 | 0.00 | 96 | 1015.5 |
| 20260505101551 | 12 | 98 | 0.0 | 3.2 | 0.00 | 0.00 | 0.00 | 96 | 1015.5 |
| 20260505100048 | 11 | 90 | 0.0 | 1.6 | 0.00 | 0.00 | 0.00 | 97 | 1015.4 |
| 20260505094606 | 11 | 5 | 1.6 | 4.8 | 0.00 | 0.00 | 0.00 | 96 | 1015.4 |
| 20260505093055 | 11 | 25 | 1.6 | 3.2 | 0.00 | 0.00 | 0.00 | 96 | 1014.7 |
| 20260505091559 | 11 | 21 | 0.0 | 1.6 | 0.00 | 0.00 | 0.00 | 96 | 1014.7 |
| 20260505090053 | 11 | 0 | 0.0 | 0.0 | 0.00 | 0.00 | 0.00 | 96 | 1014.7 |
| 20260505084554 | 10 | 0 | 0.0 | 1.6 | 0.00 | 0.00 | 0.00 | 96 | 1014.6 |
| 20260505083058 | 10 | 26 | 0.0 | 1.6 | 0.00 | 0.00 | 0.00 | 96 | 1014.6 |
| 20260505081558 | 11 | 0 | 0.0 | 0.0 | 0.00 | 0.00 | 0.00 | 96 | 1014.5 |
| 20260505080050 | 10 | 0 | 0.0 | 0.0 | 0.00 | 0.00 | 0.00 | 96 | 1014.5 |
| 20260505074546 | 10 | 0 | 0.0 | 0.0 | 0.00 | 0.00 | 0.00 | 96 | 1014.7 |
| 20260505073049 | 10 | 0 | 0.0 | 0.0 | 0.00 | 0.00 | 0.00 | 96 | 1014.7 |
| 20260505071550 | 10 | 0 | 0.0 | 0.0 | 0.00 | 0.00 | 0.00 | 95 | 1014.7 |
| 20260505070048 | 10 | 0 | 0.0 | 0.0 | 0.00 | 0.00 | 0.00 | 95 | 1015.0 |
| 20260505064549 | 10 | 0 | 0.0 | 0.0 | 0.00 | 0.00 | 0.00 | 95 | 1015.0 |
| 20260505063047 | 11 | 0 | 0.0 | 0.0 | 0.00 | 0.00 | 0.00 | 96 | 1015.2 |
| 20260505061552 | 10 | 0 | 0.0 | 0.0 | 0.00 | 0.00 | 0.00 | 95 | 1015.5 |
| 20260505060055 | 10 | 0 | 0.0 | 0.0 | 0.00 | 0.00 | 0.00 | 95 | 1015.4 |
| 20260505054558 | 11 | 0 | 0.0 | 0.0 | 0.00 | 0.00 | 0.00 | 94 | 1015.5 |
| 20260505053047 | 11 | 0 | 0.0 | 0.0 | 0.00 | 0.00 | 0.00 | 94 | 1015.4 |
| 20260505051548 | 11 | 0 | 0.0 | 0.0 | 0.00 | 0.00 | 0.00 | 94 | 1015.5 |
| 20260505041551 | 12 | 0 | 0.0 | 0.0 | 0.00 | 0.00 | 0.00 | 92 | 1016.0 |
| 20260505040059 | 13 | 0 | 0.0 | 0.0 | 0.00 | 0.00 | 0.00 | 92 | 1015.9 |
| 20260505034552 | 13 | 229 | 0.0 | 1.6 | 0.00 | 0.00 | 0.00 | 93 | 1016.1 |
| 20260505033049 | 13 | 229 | 0.0 | 1.6 | 0.00 | 0.00 | 0.00 | 91 | 1015.9 |
| 20260505031557 | 13 | 229 | 0.0 | 1.6 | 0.00 | 0.00 | 0.00 | 91 | 1016.2 |
| 20260505024552 | 14 | 0 | 0.0 | 1.6 | 0.00 | 0.00 | 0.00 | 90 | 1016.3 |
| 20260505023048 | 15 | 0 | 0.0 | 0.0 | 0.00 | 0.00 | 0.00 | 89 | 1016.5 |
| 20260505021550 | 15 | 0 | 0.0 | 0.0 | 0.00 | 0.00 | 0.00 | 87 | 1016.3 |
| 20260505020052 | 16 | 0 | 0.0 | 1.6 | 0.00 | 0.00 | 0.00 | 84 | 1016.4 |
| 20260505014629 | 17 | 0 | 0.0 | 0.0 | 0.00 | 0.00 | 0.00 | 81 | 1016.4 |
| 20260505013047 | 18 | 0 | 0.0 | 1.6 | 0.00 | 0.00 | 0.00 | 70 | 1016.1 |
| 20260505011551 | 18 | 0 | 0.0 | 1.6 | 0.00 | 0.00 | 0.00 | 69 | 1016.1 |
| 20260505010056 | 19 | 220 | 1.6 | 4.8 | 0.00 | 0.00 | 0.00 | 67 | 1016.3 |
| 20260505004545 | 19 | 229 | 1.6 | 4.8 | 0.00 | 0.00 | 0.00 | 64 | 1016.2 |
| 20260505003047 | 20 | 219 | 3.2 | 8.0 | 0.00 | 0.00 | 0.00 | 61 | 1016.2 |
| 20260505001548 | 20 | 207 | 4.8 | 9.7 | 0.00 | 0.00 | 0.00 | 58 | 1015.9 |
| 20260505000055 | 21 | 224 | 4.8 | 8.0 | 0.00 | 0.00 | 0.00 | 53 | 1016.0 |
| 20260504234546 | 21 | 217 | 1.6 | 11.3 | 0.00 | 0.00 | 0.00 | 48 | 1015.9 |
| 20260504233049 | 22 | 206 | 4.8 | 11.3 | 0.00 | 0.00 | 0.00 | 46 | 1016.0 |
| 20260504231547 | 22 | 179 | 3.2 | 14.5 | 0.00 | 0.00 | 0.00 | 47 | 1016.0 |
| 20260504230050 | 22 | 245 | 6.4 | 16.1 | 0.00 | 0.00 | 0.00 | 49 | 1015.9 |
| 20260504224549 | 22 | 193 | 3.2 | 20.9 | 0.00 | 0.00 | 0.00 | 47 | 1016.1 |
| 20260504223050 | 23 | 191 | 6.4 | 17.7 | 0.00 | 0.00 | 0.00 | 46 | 1015.9 |
| 20260504221549 | 23 | 240 | 9.7 | 20.9 | 0.00 | 0.00 | 0.00 | 42 | 1016.1 |
| 20260504220048 | 23 | 172 | 9.7 | 19.3 | 0.00 | 0.00 | 0.00 | 41 | 1015.8 |
| 20260504214555 | 24 | 220 | 4.8 | 17.7 | 0.00 | 0.00 | 0.00 | 40 | 1015.8 |
| 20260504213042 | 25 | 203 | 8.0 | 22.5 | 0.00 | 0.00 | 0.00 | 38 | 1015.7 |
| 20260504211550 | 24 | 158 | 8.0 | 19.3 | 0.00 | 0.00 | 0.00 | 39 | 1015.7 |
| 20260504204606 | 25 | 277 | 9.7 | 22.5 | 0.00 | 0.00 | 0.00 | 39 | 1015.6 |
| 20260504203108 | 25 | 184 | 9.7 | 20.9 | 0.00 | 0.00 | 0.00 | 38 | 1015.7 |
| 20260504201550 | 25 | 154 | 9.7 | 16.1 | 0.00 | 0.00 | 0.00 | 33 | 1016.1 |